Вернуться в каталог

COSMOS 1722

АктивенВоенныеLEO
NORAD 16455·PAYLOAD·🇷🇺 Russia

Запущен Jan 9, 1986 с Plesetsk Cosmodrome

Loading…

Ближайшие Пролёты (ближайшие 24 часа)

TLE

СвежийSource: Space-Track

Эпоха: Sep 14, 2026, 15:24 UTC

1 16455U 86002G   26257.64183927 -.00000016  00000-0 -72500-6 0  9998
2 16455  73.9922  17.9496 0045972   3.1876  10.7803 12.54043721862276

Отслеживайте COSMOS 1722 в реальном времени с AllMySat

Download on the App Store